LGL35EK ELLX-EKCH

Flight info

Callsign LGL35EK
Flight time N/A
Altitude 33000
Route ARCKY N853 ONUNE DCT ROBEG DCT RAMAR DCT MAKEL N851 GESKA Z711 MONAK
Aircraft B738/M-SDE2E3FGHIRWXY/LB1

Departure

Time 2026-04-30 19:39
Airport Luxembourg-Findel International Airport (ELLX)

Arrival

Time N/A
Airport Copenhagen Kastrup Airport (EKCH)
Time Latitude Longitude Altitude Speed Heading
2026-04-30 19:10 49.63122 6.21531 1229 ft 0 kts 239°
2026-04-30 19:30 49.63131 6.21557 1229 ft 4 kts 240°
2026-04-30 19:30 49.63160 6.21591 1229 ft 4 kts 151°
2026-04-30 19:31 49.63181 6.21573 1229 ft 0 kts 150°
2026-04-30 19:34 49.63160 6.21591 1229 ft 8 kts 150°
2026-04-30 19:34 49.63052 6.21565 1225 ft 12 kts 244°
2026-04-30 19:35 49.63013 6.21438 1227 ft 16 kts 244°
2026-04-30 19:35 49.62956 6.21256 1231 ft 21 kts 244°
2026-04-30 19:35 49.62890 6.21044 1232 ft 22 kts 244°
2026-04-30 19:35 49.62825 6.20832 1240 ft 22 kts 243°
2026-04-30 19:36 49.62729 6.20660 1240 ft 21 kts 218°
2026-04-30 19:36 49.62620 6.20505 1243 ft 23 kts 229°
2026-04-30 19:36 49.62401 6.20022 1211 ft 29 kts 240°
2026-04-30 19:37 49.62301 6.19754 1195 ft 29 kts 240°
2026-04-30 19:37 49.62199 6.19480 1177 ft 28 kts 241°
2026-04-30 19:37 49.62099 6.19210 1167 ft 30 kts 240°
2026-04-30 19:37 49.61991 6.18921 1157 ft 32 kts 239°
2026-04-30 19:38 49.61894 6.18750 1156 ft 19 kts 218°
2026-04-30 19:38 49.61826 6.18706 1156 ft 8 kts 168°
2026-04-30 19:38 49.61773 6.18755 1158 ft 9 kts 125°
2026-04-30 19:38 49.61788 6.18849 1160 ft 10 kts 60°
2026-04-30 19:39 49.61894 6.19135 1166 ft 63 kts 60°
2026-04-30 19:39 49.62219 6.20009 1214 ft 121 kts 60°
2026-04-30 19:39 49.62711 6.21343 1390 ft 156 kts 60°
2026-04-30 19:39 49.63253 6.22776 2264 ft 150 kts 65°
2026-04-30 19:40 49.63780 6.24175 3015 ft 160 kts 68°
2026-04-30 19:40 49.64375 6.25801 3356 ft 187 kts 67°
2026-04-30 19:40 49.65033 6.27590 3864 ft 197 kts 66°
2026-04-30 19:40 49.65727 6.29461 4480 ft 205 kts 66°
2026-04-30 19:41 49.66466 6.31464 4872 ft 228 kts 65°
2026-04-30 19:41 49.67338 6.33681 5214 ft 255 kts 54°
2026-04-30 19:41 49.68863 6.35233 5928 ft 275 kts 20°
2026-04-30 19:41 49.70794 6.35460 6792 ft 286 kts 354°
2026-04-30 19:42 49.72676 6.34390 7623 ft 293 kts 329°
2026-04-30 19:42 49.74249 6.32370 8480 ft 296 kts 316°
2026-04-30 19:42 49.75680 6.30048 9354 ft 301 kts 313°
2026-04-30 19:42 49.77098 6.27656 10293 ft 303 kts 313°
2026-04-30 19:43 49.78551 6.25225 10933 ft 317 kts 314°
2026-04-30 19:43 49.80121 6.22622 11136 ft 344 kts 314°
2026-04-30 19:43 49.81821 6.19829 11323 ft 369 kts 314°
2026-04-30 19:44 49.85715 6.14034 12052 ft 399 kts 325°
2026-04-30 19:44 49.88086 6.11811 12910 ft 398 kts 335°
2026-04-30 19:44 49.90663 6.10210 13662 ft 401 kts 342°
2026-04-30 19:44 49.93313 6.08758 14284 ft 407 kts 342°
2026-04-30 19:45 49.96000 6.07295 14918 ft 411 kts 342°
2026-04-30 19:45 49.98695 6.05794 15616 ft 413 kts 342°
2026-04-30 19:45 50.01401 6.04254 16277 ft 416 kts 342°
2026-04-30 19:45 50.04133 6.02691 16873 ft 420 kts 343°
2026-04-30 19:46 50.06971 6.01665 17469 ft 420 kts 358°
2026-04-30 19:46 50.09875 6.01811 18148 ft 417 kts 12°
2026-04-30 19:46 50.12655 6.03014 18754 ft 415 kts 24°
2026-04-30 19:46 50.14441 6.04114 19098 ft 417 kts 24°
2026-04-30 19:47 50.17152 6.05780 19627 ft 421 kts 24°
2026-04-30 19:47 50.19904 6.07416 20158 ft 425 kts 23°
2026-04-30 19:47 50.22681 6.09029 20695 ft 428 kts 22°
2026-04-30 19:47 50.25481 6.10644 21220 ft 430 kts 22°
2026-04-30 19:48 50.28299 6.12271 21710 ft 434 kts 22°
2026-04-30 19:48 50.31194 6.13688 22178 ft 439 kts 15°
2026-04-30 19:48 50.34219 6.14519 22663 ft 443 kts 11°
2026-04-30 19:48 50.37284 6.15222 23131 ft 447 kts 11°
2026-04-30 19:49 50.40367 6.15925 23576 ft 450 kts 11°
2026-04-30 19:49 50.46588 6.17435 24371 ft 455 kts 12°
2026-04-30 19:49 50.49715 6.18230 24750 ft 457 kts 11°
2026-04-30 19:50 50.52863 6.19038 25120 ft 459 kts 12°
2026-04-30 19:50 50.56024 6.19849 25497 ft 461 kts 12°
2026-04-30 19:50 50.59198 6.20655 25849 ft 463 kts 11°
2026-04-30 19:50 50.62390 6.21444 26203 ft 465 kts 11°
2026-04-30 19:51 50.65599 6.22235 26540 ft 468 kts 11°
2026-04-30 19:51 50.68803 6.23147 26858 ft 468 kts 17°
2026-04-30 19:51 50.71859 6.24885 27172 ft 467 kts 27°
2026-04-30 19:51 50.74671 6.27430 27494 ft 466 kts 36°
2026-04-30 19:52 50.77166 6.30673 27900 ft 464 kts 44°
2026-04-30 19:52 50.79507 6.34163 28413 ft 461 kts 45°
2026-04-30 19:52 50.81825 6.37651 28914 ft 459 kts 45°
2026-04-30 19:52 50.84144 6.41121 29386 ft 459 kts 45°
2026-04-30 19:53 50.86472 6.44574 29831 ft 458 kts 44°
2026-04-30 19:53 50.88802 6.48008 30303 ft 457 kts 44°
2026-04-30 19:53 50.91129 6.51428 30731 ft 456 kts 44°
2026-04-30 19:53 50.93447 6.54833 31152 ft 454 kts 44°
2026-04-30 19:54 50.95730 6.58192 31542 ft 453 kts 44°
2026-04-30 19:54 50.98063 6.61632 31943 ft 452 kts 44°
2026-04-30 19:54 51.00319 6.64963 32482 ft 447 kts 44°
2026-04-30 19:54 51.02548 6.68376 32940 ft 443 kts 48°
2026-04-30 19:55 51.04508 6.72230 33256 ft 443 kts 54°
2026-04-30 19:55 51.06293 6.76166 33329 ft 448 kts 55°
2026-04-30 19:55 51.10033 6.84256 33340 ft 447 kts 53°